TimeHST,TemperatureF,Dew PointF,Humidity,Sea Level PressureIn,VisibilityMPH,Wind Direction,Wind SpeedMPH,Gust SpeedMPH,PrecipitationIn,Events,Conditions,WindDirDegrees,DateUTC
1:56 AM,69.1,66.0,90,29.99,10.0,SE,3.5,-,N/A,,Unknown,130,2013-03-08 11:56:00
2:56 AM,68.0,57.9,70,29.97,10.0,ESE,5.8,-,N/A,,Clear,110,2013-03-08 12:56:00
3:56 AM,68.0,61.0,78,29.96,10.0,ESE,5.8,-,N/A,,Clear,110,2013-03-08 13:56:00
4:56 AM,66.9,60.1,79,29.95,10.0,ESE,4.6,-,N/A,,Clear,110,2013-03-08 14:56:00
5:56 AM,66.9,60.1,79,29.95,10.0,East,5.8,-,N/A,,Mostly Cloudy,100,2013-03-08 15:56:00
6:56 AM,69.1,61.0,75,29.97,10.0,East,3.5,-,N/A,,Mostly Cloudy,100,2013-03-08 16:56:00
7:56 AM,72.0,64.0,76,29.97,10.0,SE,6.9,-,N/A,,Partly Cloudy,130,2013-03-08 17:56:00
8:56 AM,75.0,63.0,66,29.98,10.0,SSE,8.1,-,N/A,,Overcast,160,2013-03-08 18:56:00
9:56 AM,79.0,62.1,56,29.98,10.0,SSE,9.2,18.4,N/A,,Mostly Cloudy,160,2013-03-08 19:56:00
10:56 AM,79.0,61.0,54,29.97,10.0,South,11.5,19.6,N/A,,Partly Cloudy,170,2013-03-08 20:56:00
11:56 AM,81.0,61.0,50,29.96,10.0,SSE,12.7,20.7,N/A,,Clear,160,2013-03-08 21:56:00
12:56 PM,81.0,62.1,52,29.93,10.0,South,12.7,20.7,N/A,,Clear,170,2013-03-08 22:56:00
1:56 PM,80.1,61.0,52,29.91,10.0,South,16.1,21.9,N/A,,Clear,190,2013-03-08 23:56:00
2:56 PM,81.0,62.1,52,29.88,10.0,South,11.5,20.7,N/A,,Partly Cloudy,170,2013-03-09 00:56:00
3:56 PM,79.0,61.0,54,29.87,10.0,South,15.0,20.7,N/A,,Clear,170,2013-03-09 01:56:00
4:56 PM,78.1,60.1,54,29.87,10.0,South,13.8,-,N/A,,Clear,180,2013-03-09 02:56:00
5:56 PM,77.0,61.0,58,29.88,10.0,South,16.1,21.9,N/A,,Mostly Cloudy,180,2013-03-09 03:56:00
6:56 PM,75.9,63.0,64,29.90,10.0,South,9.2,-,N/A,,Mostly Cloudy,170,2013-03-09 04:56:00
7:56 PM,75.9,66.0,71,29.91,10.0,South,6.9,-,N/A,,Mostly Cloudy,170,2013-03-09 05:56:00
8:26 PM,75.2,69.8,83,29.91,10.0,South,9.2,-,0.01,,Overcast,170,2013-03-09 06:26:00
8:33 PM,75.2,69.8,83,29.91,10.0,South,10.4,-,0.01,,Overcast,170,2013-03-09 06:33:00
8:56 PM,73.9,66.9,79,29.93,10.0,SSW,11.5,23.0,0.01,Rain,Light Rain,210,2013-03-09 06:56:00
9:28 PM,71.6,66.2,83,29.93,10.0,Variable,3.5,-,0.04,Rain,Light Rain,0,2013-03-09 07:28:00
9:49 PM,73.4,66.2,78,29.94,10.0,SW,19.6,-,0.04,,Overcast,230,2013-03-09 07:49:00
9:56 PM,73.9,69.1,85,29.94,10.0,SW,16.1,-,0.04,,Overcast,220,2013-03-09 07:56:00
10:07 PM,73.4,69.8,88,29.93,10.0,SSW,13.8,-,N/A,,Overcast,210,2013-03-09 08:07:00
10:56 PM,73.9,66.9,79,29.93,10.0,SSW,12.7,21.9,N/A,,Overcast,200,2013-03-09 08:56:00
11:56 PM,75.0,68.0,79,29.92,10.0,South,9.2,-,N/A,,Overcast,180,2013-03-09 09:56:00